Location: Gombori
(14.9797°N, 2.9419°W)
Time: 03:46:00
(UTC+00:00)

Skynet4D Del rocket - Visible Passes

Search period start: 29 November 2021 00:00
Search period end: 09 December 2021 00:00
Orbit: 763 x 1291 km, 26.9° (Epoch: 28 November)

Date Brightness Start Highest point End Pass type
(mag) Time Alt. Az. Time Alt. Az. Time Alt. Az.
29 Nov 4.8 17:49:33 10° WNW 17:57:55 77° SSW 18:05:43 10° ESE visible
29 Nov 6.1 19:44:26 10° W 19:50:52 26° SSW 19:56:42 10° SSE visible
30 Nov 5.6 18:31:31 10° W 18:39:16 43° SSW 18:46:29 10° SE visible
30 Nov 6.7 20:29:26 10° SW 20:32:09 12° SSW 20:34:49 10° SSW visible
01 Dec 6.5 19:14:30 10° W 19:20:33 23° SSW 19:26:16 10° SSE visible
02 Dec 6.0 18:01:22 10° W 18:08:52 37° SSW 18:16:04 10° SE visible
03 Dec 6.4 05:34:54 10° S 05:36:53 12° SSE 05:38:55 10° SE visible
03 Dec 6.7 18:44:46 10° WSW 18:50:13 19° SSW 18:55:30 10° S visible
05 Dec 6.1 05:03:53 10° S 05:06:57 15° SSE 05:10:03 10° ESE visible
05 Dec 6.9 18:15:20 10° WSW 18:19:55 16° SSW 18:24:27 10° S visible
06 Dec 5.1 05:43:14 10° SW 05:48:06 36° SSE 05:53:12 10° E visible
07 Dec 5.8 04:33:14 10° SSW 04:37:03 20° SSE 04:40:52 10° ESE visible
08 Dec 6.4 03:26:08 10° SSE 03:26:08 10° SSE 03:26:21 10° SE visible
08 Dec 4.5 05:13:07 10° SW 05:18:13 45° SSE 05:23:25 10° E visible
